Location: Asheville, NC
(35.6000°N, 82.5500°W)
Time: 20:36:53
(UTC-04:00)

Vanguard 2 - Pass Details

Date: 08 March 2018
Orbit: 553 x 2939 km, 32.9° (Epoch: 20 June)

Event Time Altitude Azimuth Distance (km) Brightness Sun altitude
Rises 13:45:26 0° 254° (WSW) 6,494 12.6 47.0°
Reaches altitude 10° 13:49:31 10° 253° (WSW) 5,626 12.5 46.6°
Maximum altitude 14:07:29 78° 171° (S) 2,888 11.5 44.9°
Drops below altitude 10° 14:22:37 10° 88° (E) 4,851 11.4 43.2°
Sets 14:25:51 0° 87° (E) 5,599 11.6 42.8°
